Tracking 19146 objects as of 24-Apr-2018
HD Live streaming from Space Station
objects crossing your sky now

RADUGA 19

Track RADUGA 19 now!
RADUGA 19 is classified as:


NORAD ID: 17046
Int'l Code: 1986-082A
Perigee: 36,277.3 km
Apogee: 36,342.4 km
Inclination: 15.0 °
Period: 1,462.5 minutes
Semi major axis: 42680 km
RCS: 5.2886 m2 (large)
Launch date: October 25, 1986
Source: Commonwealth of Independent States (former USSR) (CIS)
Launch site: TYURATAM MISSILE AND SPACE COMPLEX (TTMTR)
aabbcc
Your satellite tracking list
Your tracking list is empty




NASA's NSSDC Master Catalog

Two Line Element Set (TLE):
1 17046U 86082A   18113.73869567 -.00000014 +00000-0 +00000-0 0  9993
2 17046 015.0039 349.6590 0007624 102.2430 101.6256 00.98458618113606
Source of the keplerian elements: AFSPC